EDT,Max TemperatureF,Mean TemperatureF,Min TemperatureF,Max Dew PointF,MeanDew PointF,Min DewpointF,Max Humidity, Mean Humidity, Min Humidity, Max Sea Level PressureIn, Mean Sea Level PressureIn, Min Sea Level PressureIn, Max VisibilityMiles, Mean VisibilityMiles, Min VisibilityMiles, Max Wind SpeedMPH, Mean Wind SpeedMPH, Max Gust SpeedMPH,PrecipitationIn, CloudCover, Events, WindDirDegrees
2013-8-1,79,65,55,64,59,53,94,80,54,30.06,29.93,29.86,10,9,2,13,2,18,0.04,6,Rain,103
2013-8-2,79,70,62,63,58,50,100,73,39,29.88,29.85,29.82,10,9,2,7,1,,0.01,5,,303
2013-8-3,78,67,57,57,52,42,93,62,32,29.89,29.85,29.82,10,10,10,13,3,23,0.00,3,,260
2013-8-4,73,62,50,59,54,48,100,83,48,29.97,29.91,29.85,10,6,0,8,2,,0.49,6,Fog-Rain-Thunderstorm,204
2013-8-5,72,61,50,54,49,39,100,83,30,30.08,30.01,29.97,10,4,0,9,1,20,0.00,4,Fog,328
2013-8-6,78,61,45,54,48,43,93,66,32,30.15,30.12,30.09,10,10,10,5,1,,0.00,1,,148
2013-8-7,78,66,57,59,55,48,90,64,37,30.17,30.12,30.06,10,10,10,10,4,22,0.00,7,,114
2013-8-8,82,74,68,67,64,61,93,71,54,30.05,30.02,29.98,10,10,9,9,3,,0.00,4,Rain,187
2013-8-9,75,72,69,73,69,66,100,92,73,29.99,29.88,29.78,10,6,1,7,2,,2.45,7,Rain-Thunderstorm,353
2013-8-10,75,65,54,65,54,44,88,63,34,30.08,29.95,29.86,10,10,10,13,7,23,0.00,2,,270
2013-8-11,75,62,48,57,50,45,97,70,38,30.13,30.08,30.03,10,10,10,7,1,,0.00,1,,51
2013-8-12,79,64,51,62,54,50,100,78,40,30.07,30.01,29.94,10,9,2,6,1,,0.01,3,,62
2013-8-13,75,68,62,66,62,58,100,90,64,29.92,29.79,29.68,10,6,0,10,3,,2.08,7,Fog-Rain-Thunderstorm,217
2013-8-14,68,61,54,52,49,47,83,66,50,29.93,29.81,29.77,10,10,10,18,8,24,0.00,6,Rain,266
2013-8-15,71,58,46,51,47,44,96,69,43,30.12,30.09,30.04,10,10,10,8,2,,0.00,3,,256
2013-8-16,75,64,52,55,50,46,97,63,36,30.24,30.19,30.15,10,10,8,5,2,,0.00,1,,360
2013-8-17,78,62,46,58,49,45,100,84,32,30.30,30.28,30.25,10,6,0,0,0,,0.00,2,Fog,-1
2013-8-18,73,62,52,60,55,50,97,79,53,30.31,30.23,30.13,10,9,4,4,0,,0.00,0,,330
2013-8-19,78,64,51,62,55,51,100,85,47,30.13,30.08,30.01,10,6,0,5,0,,0.00,2,Fog,299
2013-8-20,81,65,50,59,54,48,100,82,39,30.16,30.10,30.06,10,5,0,5,0,,0.01,2,Fog,289
2013-8-21,82,68,53,65,56,52,100,83,39,30.20,30.15,30.06,10,5,1,5,0,,0.00,0,,270
2013-8-22,84,70,57,68,60,55,100,82,40,30.07,29.98,29.85,10,6,2,6,1,,0.07,1,Thunderstorm,267
2013-8-23,73,62,51,66,58,49,100,78,42,30.19,29.99,29.90,10,9,4,9,2,,0.01,3,,270
2013-8-24,75,60,44,57,47,42,100,80,37,30.38,30.30,30.21,10,7,0,6,0,,0.00,1,Fog,180
2013-8-25,79,62,46,59,50,45,100,77,31,30.42,30.33,30.19,10,9,2,7,0,,0.01,2,,250
2013-8-26,72,66,61,67,64,59,100,93,73,30.19,30.01,29.91,10,6,1,6,1,,0.46,8,Rain,54
2013-8-27,82,72,63,67,65,62,100,85,54,29.94,29.91,29.87,10,7,0,7,1,,0.00,4,Fog-Rain,255
2013-8-28,84,73,62,70,64,60,100,89,46,29.96,29.91,29.84,10,4,0,10,1,,0.21,6,Fog-Rain-Thunderstorm,70
2013-8-29,75,68,60,64,60,59,96,77,57,30.07,30.03,29.95,10,10,7,14,5,28,0.00,6,,97
2013-8-30,82,73,64,67,63,59,94,78,47,30.03,29.93,29.83,10,10,10,5,0,,0.00,4,,314
2013-8-31,82,74,68,73,68,66,100,87,62,29.84,29.81,29.76,10,6,1,13,2,24,0.18,6,Rain-Thunderstorm,160